Tracking 30995 objects as of 7-Jul-2025
HD Live streaming from Space Station
objects crossing your sky now

FENGYUN 1C DEB

Track FENGYUN 1C DEB now!
10-day predictions


NORAD ID: 32218
Int'l Code: 1999-025CVQ
Perigee: 673.6 km
Apogee: 764.0 km
Inclination: 98.8 °
Period: 99.0 minutes
Semi major axis: 7089 km
RCS: 0.0091 m2 (small)
Launch date: May 10, 1999
Source: People's Republic of China (PRC)
Launch site: Taiyaun Space Center, China (TSC)

Note: This is SATELLITE DEBRIS
Your satellite tracking list
Your tracking list is empty




NASA's NSSDC Master Catalog

Two Line Element Set (TLE):
1 32218U 99025CVQ 25185.99369366  .00003088  00000-0  72084-3 0  9996
2 32218  98.8181  11.1316 0063735 194.6293 317.9406 14.54285742938950
Source of the keplerian elements: AFSPC